Schedule Details


Flight Number: CTN471
Departure: Charles-de-gaulle (LFPG) at 18:30
Arrival: Franjo Tudman (LDZA) at 20:20
Route: LANVI UM164 EPL UN491 DEGES UN871 MADEB UN606 ELMEM UL607 GEDSO DCT VEKEN Y177 DEGUM DCT ARGOM

Weather Information
LFPG 242100Z 02009KT 360V110 CAVOK 25/19 Q1015 NOSIG
LDZA 242100Z 33002KT CAVOK 22/18 Q1021 NOSIG
Schedule Frequency

Route Map